Погода в Буденновске

Погода в Буденновске : погода сейчас, прогноз погоды и архив. Всё, что Вы хотите узнать о погоде в Буденновске!

Хотите узнать прогноз погоды в Буденновске? Тогда Вам сюда: Погода в Буденновске

Поиск расширенной информации на нашем сайте:

Другие новости

Новости СМИ2

Главная страница сайта

Новости сайта

02.10.2013

Напоминаем, что на нашем новом сайте вы можете получить высокодетализированные прогнозы погоды по пунктам России, СНГ и мира (включающие важные для авиации метеовеличины, такие как направление и скорость ветра, видимость, явления погоды, количество и форма облачности, нижняя и верхняя граница облачности), а также ознакомиться с разнообразными материалами по авиационной метеорологии и подборкой полезных ссылок на эту тему.

Сайт Метеоцентр.Азия посвящён разработке технологий оптимизации авиаметеорологического обслуживания, включая проектирование и перспективное создание нескольких автоматизированных авиаметеорологических систем:
- система выпуска высокодетальных прогностических карт явлений погоды для нижнего воздушного пространства по России и ближнему зарубежью;
- система верификации прогнозов TAF (выпускаемых синоптиками официальных АМСГ РФ и ближнего зарубежья) и AUTOTAF (выпускаемых сайтом Метеоцентр.Азия) - выявление ошибок, онлайн-сопоставление с фактической погодой METAR, автоматическое внесение коррективов в прогнозы при резком отклонении фактической погоды от прогноза, подсчёт оправдываемости прогнозов по элементам и в целом;
- система обработки, анализа и отображения авиаметеорологической информации для применения провайдерами метеорологической информации.

Рекомендуем: реставрация ванн

Погода в Буденновске - сегодня

Время (UTC), дата Ветер
(°,м/с) 
Видим.   Явления Облачность Т
(°С)
Тd
(°С)
f(%) Тe
(°С)
Pmin
(гПа)
dP
(гПа)
Po
(мм)
O2
(г/м3)
Тmin Tmax R s Состояние
почвы
06 26.03.17 070 (В) 4000 м  слаб. ливневой дождь  10/10 600 м кучево-дожд. 
[Cb calv]
+4.7 +3.4 91 +4  1017  1.2  750  297  +4.5         
09 26.03.17 060 (СВ) 10 км  {ливн. осадки}  10/10 600 м 
[Sc]
+5.8 +3.3 84 +5  1016.3  -0.7  750  295           
12 26.03.17 070 (В) 10 км  слаб. ливневой дождь  10/10 600 м кучево-дожд. 
[Cb calv]
+5.8 +3.3 84 +5  1015.3  -1  749  295           
15 26.03.17 080 (В) 10 км  слаб. ливневой дождь  10/10 600 м кучево-дожд. 
[Cb calv]
+4.9 +2.1 82 +3  1015.1  -0.2  749  296    +6     
18 26.03.17 050 (СВ) 4000 м  дымка{ливн. осадки}  10/10 600 м 
[Sc]
+3.9 +1.5 84 +3  1015.9  0.7  749  297           
21 26.03.17 060 (СВ) 4000 м  дымка{ливн. осадки}  10/10 600 м 
[Sc]
+2.8 +1.4 90 +1  1014.7  -1.2  749  298           
00 27.03.17 070 (В) 4000 м  дымка{ливн. осадки}  10/10 600 м 
[Sc]
+2.6 +1.7 94 +2  1013.9  -0.8  748  298           
03 27.03.17 030 (СВ) 4000 м  слаб. ливневой дождь{туман}  ?/?  
+2.4 +2 97 +3  1013.2  -0.6  747  298  +2.4    0.6     
06 27.03.17 290 (З) 2000 м  слаб. ливневой дождь{туман}  10/10 600 м кучево-дожд. 
[Cb calv]
+3.1 +2.6 97 +4  1013.4  0.3  748  297  +2.4         
09 27.03.17 250 (З) 4000 м  в посл. час ливневой дождь  10/10 600 м кучево-дожд. 
[Cb calv]
+5.7 +4 89 +5  1012.3  -1  747  294           
12 27.03.17 280 (З) 4000 м  слаб. ливневой дождь  10/10 300 м кучево-дожд. 
[Cb calv]
+8.3 +4 74 +8  1011.1  -1  746  291           
15 27.03.17 270 (З) 4000 м  слаб. ливневой дождь  10/10 600 м кучево-дожд. 
[Cb calv]
+6.6 +4 83 +6  1011.9  0.7  747  293    +8.6     
18 27.03.17 210 (ЮЗ) 4000 м  слаб. ливневой дождь  10/10 600 м кучево-дожд. 
[Cb calv]
+5.3 +3.7 89 +3  1012.8  0.8  747  295           
21 27.03.17 270 (З) 3{13}  10 км  в посл. час ливневой дождь  10/10 600 м кучево-дожд. 
[Cb calv]
+5.6 +0.8 71 +5  1013.7  0.9  748  295           
00 28.03.17 260 (З) 4{10}  10 км  {ливн. осадки}  10/10 600 м 
[Sc]
+4.3 -0.1 73 +3  1014.5  0.7  748  297           
03 28.03.17 260 (З) 10 км    9/9 600 м 
[Sc]
+3.6 +0.3 79 +2  1015.6  1.1  749  298  +3.5       
06 28.03.17 260 (З) 8-12{13}  10 км    1/1 300 м 
[St]
+7 +0.3 62 +4  1016.1  1.1  750  294           
09 28.03.17 260 (З) 9-13{14}  10 км    1/1 600 м 
[Cu hum]
+10.5 -1.5 43 +8  1014.3  -1.6  749  291           
12 28.03.17 260 (З) 9-14{14}  10 км    1/1 600 м 
[Cu hum]
+13 -3 33 +11  1011.4  -2.6  746  287           
15 28.03.17 250 (З) 9-13{16}  10 км    9/9 600 м 
[Sc]
+11.8 -4.8 31 +10  1009.9  -1.5  745  288    +13.5       
18 28.03.17 240 (ЮЗ) 5{13}  20000 м    9/9 600 м 
[Sc]
+9.4 -1.3 47 +8  1011.1  746  291           
21 28.03.17 230 (ЮЗ) 6{10}  20000 м    10/10 600 м 
[Sc]
+8 -0.3 56 +6  1010.5  -0.6  746  292           
00 29.03.17 260 (З) 10-15{18}  20000 м  {ливн. осадки}  10/10 600 м 
[Sc]
+9.1 +1 57 +6  1010.9  0.5  746  291           
03 29.03.17 310 (СЗ) 5{19}  10 км  в посл. час ливневой дождь  10/10 600 м кучево-дожд. 
[Cb calv]
+4.8 +1.5 79 +3  1014.5  3.2  748  296  +4.8    0.4     
06 29.03.17 310 (СЗ) 4{10}  10 км  слаб. ливневой дождь  10/10 600 м кучево-дожд. 
[Cb calv]
+4.6 -1.1 66 +3  1017  2.5  750  297  +4.4         
Время (UTC), дата Ветер
(°,м/с) 
Видим.   Явления Облачность Т
(°С)
Тd
(°С)
f(%) Тe
(°С)
Pmin
(гПа)
dP
(гПа)
Po
(мм)
O2
(г/м3)
Тmin Tmax R s Состояние
почвы

Для получения пояснительной информации подведите курсор к названию столбца.

ПОГОДА в Буденновске - архив

Всё, что Вы хотите узнать о погоде в Буденновске - удобно и подробно!

Выберите нужную дату (начиная с 1 января 2015* года) и нажмите кнопку "Найти".
Будут отображены архивные сводки погоды по пункту Буденновск, начиная с указанной даты.


Отображать данные в формате CSV (для использования в таблицах Excel)


Внимание! Наш архив погоды предназначен исключительно для личного некоммерческого использования в познавательных целях. Если Вам необходимы официальные справки о состоянии погоды (для производственных, юридических, коммерческих и т.п. целей), обращайтесь в органы Росгидромета.

*Примечание: данная дата относится к архиву по метеостанциям СССР (Россия, СНГ, Балтия).
Архив по метеостанциям Зарубежной Европы и Азии (кроме Китая) хранится 10 дней, по другим регионам земного шара (Китай, Африка, Америка, Австралия, Океания) - 1 день.

Буденновск - район местоположения метеостанции


Название, широта, долгота, высота метеостанции:
Буденновск (Прикумск) 44.8°ш. 44.1°д. 136 м над ур. моря [Российская Федерация]

Дополнительная информация

В oтличие oт бoльшинства пoгoдных сайтoв мы публикуем пoдрoбную метеoинфoрмацию в детальнoм прoфессиoнальнoм фoрмате.

Характеристики температуры и влажнoсти вoздуха измеряются на высoте 2 м в тени вдали oт зданий и деревьев.
Скoрoсть ветра измеряется на высoте 10 м (на урoвне рoста челoвека скoрoсть ветра ниже в 1.5-2 раза). Если метеoстанция нахoдится в гoрoде или в лесу, тo скoрoсть ветра занижена на 2-4 м/с пo сравнению с oткрытым местoм. Скoрoсть ветра над акватoриями крупных рек и oзёр, а также на вершинах хoлмoв на 2-5 м/с выше, чем в oбычных услoвиях.
Атмoсфернoе давление в разных тoчках местнoсти мoжет значительнo oтличаться oт давления на метеoстанции, в зависимoсти oт услoвий рельефа (при пoдъёме на 10 м давление пoнижается примернo на 1 мм рт.ст.).